This demonstration page uses our WeatherBlox Daily Observations layout. Learn more.

Left ArrowRight Arrow

31.31129, -92.44514

Hourly Observations for August 30, 2018

Temp ( °F °C ) Dew Point ( °F °C ) Humidity (%) Winds ( mph kmh ) Pressure ( in mb ) Visibility ( mi km ) Precip ( " mm )
12:53 am 00:53 Clear 74 23.3 72 22.2 94 94 E 5 7 30.06 1018 10 16 0.00 0.00
1:53 am 01:53 Clear 74 23.3 72 22.2 94 94 ESE 5 7 30.05 1018 8 13 0.00 0.00
2:53 am 02:53 Clear 72 22.2 71 21.7 97 97 S 5 7 30.04 1017 7 11 0.00 0.00
3:53 am 03:53 Clear with Mist and Fog 72 22.2 71 21.7 97 97 Calm 30.03 1017 5 8 0.00 0.00
4:53 am 04:53 Clear with Mist and Fog 72 22.2 71 21.7 97 97 SE 5 7 30.04 1017 6 10 0.00 0.00
5:21 am 05:21 Mostly Clear 73 22.8 71 21.7 94 94 SE 3 6 30.03 1017 7 11 0.00 0.00
5:49 am 05:49 Mostly Cloudy with Mist and Fog 72 22 72 22 100 100 Calm 30.06 1018 5 8 0.00 0.00
5:53 am 05:53 Mostly Cloudy with Mist and Fog 72 22.2 71 21.7 97 97 Calm 30.06 1018 5 8 0.00 0.00
6:14 am 06:14 Partly Cloudy with Mist and Fog 72 22.2 70 21.1 94 94 Calm 30.06 1018 6 10 0.00 0.00
6:49 am 06:49 Mostly Cloudy with Mist and Fog 72 22 70 21 94 94 NNE 5 7 30.06 1018 2 3 0.00 0.00
6:53 am 06:53 Mostly Cloudy with Mist and Fog 72 22.2 71 21.7 97 97 NNE 3 6 30.08 1019 1 2 0.00 0.00
7:01 am 07:01 Mostly Cloudy with Fog 72 22.2 71 21.7 97 97 Calm 30.09 1019 1 1 0.00 0.00
7:05 am 07:05 Mostly Cloudy with Fog 72 22.2 71 21.7 97 97 Calm 30.09 1019 0 0 0.00 0.00
7:18 am 07:18 Mostly Cloudy with Mist and Fog 72 22.2 71 21.7 97 97 Calm 30.09 1019 1 1 0.00 0.00
7:53 am 07:53 Cloudy with Mist and Fog 73 22.8 72 22.2 96 96 NNE 3 6 30.09 1019 1 1 0.00 0.00
8:00 am 08:00 Cloudy with Mist and Fog 73 22.8 72 22.2 96 96 ENE 3 6 30.09 1019 1 2 0.00 0.00
8:53 am 08:53 Sunny with Mist and Fog 77 25 73 22.8 88 88 Calm 30.09 1019 1 2 0.00 0.00
9:00 am 09:00 Sunny 78 25.6 73 22.8 85 85 ESE 3 6 30.09 1019 8 13 0.00 0.00
9:53 am 09:53 Sunny 82 27.8 73 22.8 74 74 VRB 3 6 30.09 1019 10 16 0.00 0.00
10:28 am 10:28 Mostly Cloudy 84 28.9 72 22.2 67 67 VRB 3 6 30.09 1019 10 16 0.00 0.00
10:53 am 10:53 Cloudy 87 30.6 71 21.7 59 59 SSE 5 7 30.09 1019 10 16 0.00 0.00
11:51 am 11:51 Mostly Cloudy 86 30 72 22 62 62 VRB 3 6 30.06 1018 10 16 0.00 0.00
11:53 am 11:53 Mostly Cloudy 86 30 72 22.2 63 63 VRB 3 6 30.06 1018 10 16 0.00 0.00
12:53 pm 12:53 Mostly Sunny 91 32.8 70 21.1 50 50 undefined N/A 30.04 1017 9 14 0.00 0.00
1:53 pm 13:53 Mostly Sunny 92 33.3 70 21.1 49 49 ENE 9 15 30.01 1016 10 16 0.00 0.00
2:53 pm 14:53 Mostly Cloudy 92 33.3 69 20.6 47 47 NE 6 9 30.00 1016 9 14 0.00 0.00
4:53 pm 16:53 Partly Cloudy 91 32.8 70 21.1 50 50 ESE 7 11 29.96 1015 10 16 0.00 0.00
5:53 pm 17:53 Mostly Sunny 92 33.3 69 20.6 47 47 E 8 13 29.96 1014 10 16 0.00 0.00
7:53 pm 19:53 Clear 83 28.3 71 21.7 67 67 E 8 13 29.97 1015 10 16 0.00 0.00
8:53 pm 20:53 Clear 81 27.2 70 21.1 69 69 E 7 11 29.99 1016 10 16 0.00 0.00
9:53 pm 21:53 Clear 79 26.1 71 21.7 77 77 ESE 3 6 30.00 1016 10 16 0.00 0.00
10:53 pm 22:53 Clear 77 25 71 21.7 82 82 E 3 6 30.01 1016 10 16 0.00 0.00
11:53 pm 23:53 Clear 76 24.4 71 21.7 85 85 ESE 3 6 30.01 1016 10 16 0.00 0.00

Powered by AerisWeather